Location: Rottenacker
(48.2350°N, 9.6886°E)
Time: 21:17:51
(UTC+01:00)

Tiangong 1 - Visible Passes

Search period start: 22 January 2018 00:00
Search period end: 01 February 2018 00:00
Orbit: 261 x 286 km, 42.8° (Epoch: 22 January)

Date Brightness Start Highest point End Pass type
(mag) Time Alt. Az. Time Alt. Az. Time Alt. Az.
22 Jan 3.1 17:56:24 10° WSW 17:58:11 17° SSW 17:59:56 10° SSE visible
23 Jan 3.4 17:55:48 10° SW 17:57:12 14° SSW 17:58:36 10° SSE visible
24 Jan 3.9 17:55:38 10° SSW 17:56:02 10° SSW 17:56:24 10° SSW visible
